Ionia, MI

12:09 AM EST on December 04, 2016 (GMT -0500)
Ionia

Weather History for KY70 - December, 2012

Change the Weather History Date:

Sunday, December 9, 2012

  Actual Average (KGRR) Record (KGRR)
Temperature  
Mean Temperature 31 °F 31 °F  
Max Temperature 32 °F 37 °F 59 °F (1946)
Min Temperature 30 °F 25 °F -1 °F (1964)
Degree Days  
Heating Degree Days 34 34  
Month to date heating degree days 293  
Since 1 July heating degree days 1631  
Cooling Degree Days 0 0  
Month to date cooling degree days 0  
Year to date cooling degree days 699  
Moisture  
Dew Point 29 °F    
Average Humidity 92    
Maximum Humidity 99    
Minimum Humidity 85    
Precipitation  
Precipitation 0.04 in 0.09 in 0.81 in (1907)
Month to date precipitation 0.81  
Year to date precipitation 36.58  
Snow  
Snow 0.00 in 0.60 in 4.60 in (1995)
Month to date snowfall 5.1  
Since 1 July snowfall 12.4  
Snow Depth -    
Sea Level Pressure  
Sea Level Pressure 29.95 in    
Wind  
Wind Speed 9 mph (ENE)    
Max Wind Speed 17 mph    
Max Gust Speed 26 mph    
Visibility 7 miles    
Events Snow    
T = Trace of Precipitation, MM = Missing Value Source: NWS Daily Summary

Daily Weather History Graph

Daily Weather History Graph

Search for Another Location

Airport or City:

Trip Planner

Search our weather history database for the weather conditions in past years. The results will help you decide how hot, cold, wet, or windy it might be!

Date:

Astronomy

Dec. 09, 2012 Rise Set
Actual Time 7:59 AM EST 5:05 PM EST
Civil Twilight 7:27 AM EST 5:37 PM EST
Nautical Twilight 6:52 AM EST 6:13 PM EST
Astronomical Twilight 6:17 AM EST 6:47 PM EST
Moon 3:27 AM EST (12/9) 2:15 PM EST (12/9)
Length of Visible Light 10h 10m
Length of Day
9h 05m
Waning Crescent, 19% of the Moon is Illuminated
Dec 9
Waning Crescent
Dec 13
New
Dec 20
First Quarter
Dec 28
Full
Jan 4
Last Quarter

Hourly Weather History & Observations

Time (EST) Temp. Windchill Dew Point Humidity Pressure Visibility Wind Dir Wind Speed Gust Speed Precip Events Conditions
12:14 AM 30.6 °F 23.8 °F 27.0 °F 86% 30.16 in 10.0 mi East 6.9 mph - N/A   Clear
12:34 AM 30.7 °F 24.1 °F 27.0 °F 86% 30.16 in 10.0 mi East 6.9 mph - N/A   Clear
12:54 AM 30.7 °F 24.9 °F 27.1 °F 86% 30.15 in 10.0 mi ENE 5.8 mph - N/A   Scattered Clouds
1:14 AM 30.6 °F 23.8 °F 27.1 °F 87% 30.15 in 10.0 mi ENE 6.9 mph - N/A   Scattered Clouds
1:34 AM 30.7 °F 24.9 °F 26.8 °F 85% 30.16 in 10.0 mi East 5.8 mph - N/A   Mostly Cloudy
1:54 AM 30.6 °F 24.7 °F 27.0 °F 86% 30.16 in 10.0 mi ENE 5.8 mph - N/A   Overcast
2:14 AM 30.6 °F 23.8 °F 27.0 °F 86% 30.15 in 10.0 mi East 6.9 mph - N/A   Mostly Cloudy
2:34 AM 30.9 °F 23.5 °F 27.0 °F 85% 30.15 in 10.0 mi East 8.1 mph - N/A   Mostly Cloudy
2:54 AM 30.7 °F 23.3 °F 27.1 °F 86% 30.14 in 10.0 mi East 8.1 mph - N/A   Overcast
3:14 AM 30.9 °F 25.2 °F 27.3 °F 86% 30.15 in 10.0 mi ENE 5.8 mph - N/A   Overcast
3:34 AM 30.9 °F 25.2 °F 27.3 °F 86% 30.14 in 10.0 mi East 5.8 mph - N/A   Overcast
3:54 AM 30.7 °F 24.1 °F 27.3 °F 87% 30.14 in 10.0 mi East 6.9 mph - N/A   Overcast
4:14 AM 30.7 °F 24.1 °F 27.3 °F 87% 30.14 in 10.0 mi ENE 6.9 mph - N/A   Mostly Cloudy
4:34 AM 30.7 °F 26.0 °F 27.5 °F 88% 30.14 in 10.0 mi East 4.6 mph - N/A   Scattered Clouds
4:54 AM 30.7 °F 24.9 °F 27.5 °F 88% 30.14 in 10.0 mi ENE 5.8 mph - N/A   Scattered Clouds
5:14 AM 30.6 °F 23.1 °F 27.3 °F 88% 30.13 in 10.0 mi East 8.1 mph - N/A   Scattered Clouds
5:34 AM 30.2 °F 22.6 °F 27.3 °F 89% 30.13 in 10.0 mi East 8.1 mph - N/A   Clear
5:54 AM 30.4 °F 22.2 °F 27.3 °F 88% 30.14 in 10.0 mi ENE 9.2 mph - N/A   Scattered Clouds
6:14 AM 30.7 °F 22.0 °F 27.5 °F 88% 30.14 in 10.0 mi ENE 10.4 mph - N/A   Overcast
6:34 AM 31.1 °F 22.4 °F 27.5 °F 87% 30.13 in 10.0 mi East 10.4 mph - N/A   Overcast
7:14 AM 31.1 °F 21.4 °F 27.5 °F 87% 30.12 in 10.0 mi East 12.7 mph - N/A   Overcast
7:34 AM 31.6 °F 21.6 °F 27.7 °F 85% 30.11 in 10.0 mi East 13.8 mph 18.4 mph N/A   Overcast
7:54 AM 31.8 °F 22.8 °F 28.2 °F 87% 30.10 in 10.0 mi East 11.5 mph - N/A   Overcast
8:14 AM 32.0 °F 22.1 °F 28.6 °F 87% 30.09 in 10.0 mi East 13.8 mph 18.4 mph N/A   Overcast
8:34 AM 32.0 °F 22.5 °F 29.1 °F 89% 30.08 in 10.0 mi East 12.7 mph 19.6 mph N/A   Mostly Cloudy
8:54 AM 32.0 °F 22.1 °F 29.3 °F 90% 30.07 in 10.0 mi East 13.8 mph 17.3 mph N/A   Overcast
9:14 AM 32.2 °F 22.7 °F 29.3 °F 89% 30.07 in 10.0 mi East 12.7 mph 18.4 mph N/A   Overcast
9:34 AM 32.4 °F 23.0 °F 29.7 °F 90% 30.06 in 10.0 mi East 12.7 mph 18.4 mph N/A   Mostly Cloudy
9:54 AM 32.5 °F 24.2 °F 29.8 °F 90% 30.07 in 10.0 mi East 10.4 mph - N/A   Mostly Cloudy
10:34 AM 32.5 °F 22.7 °F 30.0 °F 90% 30.04 in 10.0 mi ENE 13.8 mph 19.6 mph N/A   Overcast
10:54 AM 32.9 °F 24.7 °F 30.0 °F 89% 30.05 in 10.0 mi East 10.4 mph - N/A   Overcast
11:14 AM 32.9 °F 23.2 °F 30.0 °F 89% 30.03 in 10.0 mi East 13.8 mph - N/A   Overcast
11:34 AM 32.9 °F 23.7 °F 30.0 °F 89% 30.02 in 10.0 mi ENE 12.7 mph 17.3 mph N/A   Overcast
11:54 AM 32.9 °F 24.1 °F 30.0 °F 89% 30.00 in 10.0 mi East 11.5 mph 20.7 mph N/A   Overcast
12:14 PM 32.9 °F 22.8 °F 29.8 °F 88% 29.99 in 10.0 mi ENE 15.0 mph 20.7 mph N/A   Overcast
12:34 PM 32.5 °F 23.7 °F 29.8 °F 90% 29.97 in 10.0 mi ENE 11.5 mph - N/A   Overcast
12:54 PM 32.2 °F 21.8 °F 29.8 °F 91% 29.94 in 10.0 mi ENE 15.0 mph 20.7 mph N/A   Overcast
1:14 PM 32.0 °F 20.8 °F 29.7 °F 91% 29.92 in 7.0 mi ENE 17.3 mph 24.2 mph N/A Snow Light Snow
1:34 PM 32.0 °F 20.8 °F 29.7 °F 91% 29.92 in 4.0 mi ENE 17.3 mph 21.9 mph N/A Snow Light Snow
1:54 PM 32.0 °F 21.6 °F 30.2 °F 93% 29.89 in 2.5 mi ENE 15.0 mph 19.6 mph 0.02 in Snow Light Snow
2:14 PM 32.0 °F 22.1 °F 30.6 °F 94% 29.88 in 2.5 mi ENE 13.8 mph 23.0 mph 0.01 in   Overcast
2:34 PM 32.0 °F 21.2 °F 30.9 °F 96% 29.86 in 5.0 mi ENE 16.1 mph 25.3 mph 0.01 in   Overcast
2:54 PM 32.0 °F 21.2 °F 31.1 °F 96% 29.85 in 5.0 mi East 16.1 mph 23.0 mph 0.01 in   Overcast
3:14 PM 32.0 °F 21.2 °F 31.1 °F 96% 29.83 in 7.0 mi East 16.1 mph 24.2 mph N/A   Overcast
3:34 PM 32.0 °F 21.6 °F 31.1 °F 96% 29.84 in 5.0 mi ENE 15.0 mph 23.0 mph N/A   Overcast
3:54 PM 32.2 °F 21.1 °F 31.1 °F 96% 29.83 in 7.0 mi East 17.3 mph 26.5 mph N/A   Overcast
4:14 PM 32.5 °F 24.2 °F 31.6 °F 96% 29.84 in 3.0 mi East 10.4 mph 21.9 mph 0.01 in Snow Light Snow
4:34 PM 32.5 °F 22.3 °F 31.8 °F 97% 29.82 in 4.0 mi ENE 15.0 mph 19.6 mph 0.01 in   Overcast
4:54 PM 32.5 °F 22.7 °F 31.8 °F 97% 29.82 in 3.0 mi East 13.8 mph 21.9 mph 0.01 in   Overcast
5:14 PM 32.4 °F 22.1 °F 31.6 °F 97% 29.82 in 2.0 mi East 15.0 mph 20.7 mph N/A   Overcast
5:34 PM 32.2 °F 24.4 °F 31.8 °F 99% 29.82 in 2.0 mi ENE 9.2 mph - N/A Snow Light Snow
5:54 PM 32.0 °F 22.5 °F 31.5 °F 98% 29.80 in 1.8 mi ENE 12.7 mph 18.4 mph N/A Snow Light Snow
6:14 PM 32.0 °F 22.1 °F 31.5 °F 98% 29.80 in 2.5 mi East 13.8 mph 18.4 mph N/A Snow Light Snow
6:34 PM 32.0 °F 22.5 °F 31.6 °F 99% 29.78 in 3.0 mi ENE 12.7 mph 18.4 mph N/A Snow Light Snow
6:54 PM 32.0 °F 23.0 °F 31.5 °F 98% 29.77 in 2.5 mi East 11.5 mph - N/A Snow Light Snow
7:14 PM 32.0 °F 22.5 °F 31.1 °F 96% 29.77 in 4.0 mi East 12.7 mph 17.3 mph N/A Snow Light Snow
7:34 PM 32.0 °F 23.6 °F 31.1 °F 96% 29.76 in 4.0 mi ENE 10.4 mph - N/A   Overcast
7:54 PM 32.0 °F 23.0 °F 31.1 °F 96% 29.74 in 5.0 mi ENE 11.5 mph - N/A   Overcast
8:14 PM 31.8 °F 23.9 °F 30.9 °F 96% 29.74 in 7.0 mi ENE 9.2 mph - N/A   Overcast
8:34 PM 31.6 °F 23.7 °F 30.9 °F 97% 29.72 in 5.0 mi East 9.2 mph - N/A   Overcast
9:14 PM 31.5 °F 24.2 °F 30.7 °F 97% 29.71 in 5.0 mi ENE 8.1 mph - N/A   Overcast
9:34 PM 31.1 °F 23.7 °F 30.7 °F 99% 29.70 in 4.0 mi East 8.1 mph - N/A   Overcast
9:54 PM 31.3 °F 24.7 °F 30.9 °F 99% 29.69 in 3.0 mi ENE 6.9 mph - N/A   Overcast
10:14 PM 31.3 °F 25.6 °F 30.7 °F 98% 29.68 in 3.0 mi NE 5.8 mph - N/A   Overcast
10:34 PM 31.1 °F 25.4 °F 30.7 °F 99% 29.67 in 2.5 mi ENE 5.8 mph - N/A   Overcast
10:54 PM 31.1 °F 26.4 °F 30.7 °F 99% 29.67 in 2.5 mi ENE 4.6 mph - N/A   Overcast
11:14 PM 31.1 °F 25.4 °F 30.9 °F 99% 29.67 in 2.0 mi NE 5.8 mph - N/A   Overcast
11:34 PM 31.1 °F 27.7 °F 30.9 °F 99% 29.68 in 1.5 mi NNE 3.5 mph - N/A   Overcast
11:54 PM 31.1 °F 27.7 °F 30.7 °F 99% 29.66 in 1.5 mi NE 3.5 mph - N/A   Overcast